This is the latest recevied weather packets stored in our database for station/object K4MGY-13. If no packets are shown the sender has not sent any weather packets the latest 10 day(s).
| Time | Temp. | Humidity | Pressure | Rain* | Wind** | Luminosity | Snow |
|---|---|---|---|---|---|---|---|
| 1778025399 | 21.67° C | 56% | 1007.1 hPa | 0 mm | - | - | - |
| 1778025100 | 21.67° C | 56% | 1007.1 hPa | 0 mm | - | - | - |
| 1778024771 | 21.67° C | 56% | 1007.5 hPa | 0 mm | - | - | - |
| 1778024439 | 21.67° C | 56% | 1007.5 hPa | 0 mm | - | - | - |
| 1778024108 | 21.67° C | 56% | 1007.5 hPa | 0 mm | - | - | - |
| 1778023779 | 21.67° C | 56% | 1007.5 hPa | 0 mm | - | - | - |
| 1778023449 | 21.67° C | 56% | 1007.5 hPa | 0 mm | - | - | - |
| 1778023149 | 21.67° C | 55% | 1007.8 hPa | 0 mm | - | - | - |
| 1778022849 | 21.67° C | 56% | 1007.5 hPa | 0 mm | - | - | - |
| 1778022549 | 21.67° C | 55% | 1007.8 hPa | 0 mm | - | - | - |
| 1778022249 | 21.67° C | 55% | 1007.5 hPa | 0 mm | - | - | - |
| 1778021949 | 21.11° C | 57% | 1007.8 hPa | 0.25 mm | - | - | - |
| 1778021648 | 21.11° C | 58% | 1007.8 hPa | 0.51 mm | - | - | - |
| 1778021350 | 21.11° C | 58% | 1007.8 hPa | 0.51 mm | - | - | - |
| 1778021049 | 21.11° C | 59% | 1008.1 hPa | 0.51 mm | - | - | - |
| 1778020718 | 20.56° C | 59% | 1008.5 hPa | 0.51 mm | - | - | - |
| 1778020388 | 20.56° C | 60% | 1008.5 hPa | 0.51 mm | - | - | - |
| 1778020059 | 20.56° C | 60% | 1008.1 hPa | 0.51 mm | - | - | - |
| 1778019728 | 20.56° C | 60% | 1008.1 hPa | 0.51 mm | - | - | - |
| 1778019399 | 20.56° C | 59% | 1008.1 hPa | 0.51 mm | - | - | - |
| 1778019100 | 20.56° C | 59% | 1008.1 hPa | 0.51 mm | - | - | - |
| 1778018438 | 21.67° C | 54% | 1008.5 hPa | 0.25 mm | - | - | - |
| 1778018108 | 21.67° C | 51% | 1009.5 hPa | 0 mm | - | - | - |
| 1778017809 | 22.22° C | 50% | 1009.8 hPa | 0 mm | - | - | - |
| 1778017479 | 22.22° C | 49% | 1009.1 hPa | 0 mm | - | - | - |
* Rain latest hour (hover to see other rain measurements)
** Current wind speed in m/s (hover to see current wind gust speed)